Location: *
(42.0175°N, 9.4056°E)
Time: 08:09:16
(UTC+00:00)

Cosmos 468 - Pass Details

Date: 25 August 2019
Orbit: 762 x 784 km, 74.0° (Epoch: 21 September)

Event Time Altitude Azimuth Distance (km) Brightness Sun altitude
Rises 20:52:01 0° 340° (NNW) 3,244 8.8 -26.8°
Reaches altitude 10° 20:54:23 10° 340° (NNW) 2,316 7.8 -27.1°
Enters shadow 20:59:20 80° 341° (NNW) 789 4.5 -27.7°
